This is the latest recevied weather packets stored in our database for station/object WB0OCV. If no packets are shown the sender has not sent any weather packets the latest 10 day(s).
| Time | Temp. | Humidity | Pressure | Rain* | Wind** | Luminosity | Snow |
|---|---|---|---|---|---|---|---|
| 1777769629 | 9.44° C | 98% | 1013 hPa | 1.27 mm | - | 0 W/m² | - |
| 1777769324 | 9.44° C | 98% | 1013 hPa | 3.05 mm | - | 0 W/m² | - |
| 1777769022 | 9.44° C | 98% | 1012.9 hPa | 3.05 mm | - | 0 W/m² | - |
| 1777768719 | 9.44° C | 98% | 1013.1 hPa | 3.05 mm | - | 0 W/m² | - |
| 1777768416 | 9.44° C | 98% | 1013 hPa | 3.05 mm | - | 0 W/m² | - |
| 1777768113 | 9.44° C | 98% | 1013.1 hPa | 1.27 mm | - | 0 W/m² | - |
| 1777767810 | 9.44° C | 98% | 1013 hPa | 0 mm | - | 0 W/m² | - |
| 1777767507 | 9.44° C | 97% | 1013 hPa | 0 mm | - | 0 W/m² | - |
| 1777767203 | 9.44° C | 97% | 1012.9 hPa | 0 mm | - | 0 W/m² | - |
| 1777766900 | 9.44° C | 97% | 1013 hPa | 0 mm | - | 0 W/m² | - |
| 1777766598 | 9.44° C | 97% | 1012.9 hPa | 1.78 mm | - | 0 W/m² | - |
| 1777766295 | 9.44° C | 97% | 1012.9 hPa | 1.78 mm | - | 0 W/m² | - |
| 1777765992 | 9.44° C | 96% | 1012.9 hPa | 1.27 mm | - | 0 W/m² | - |
| 1777765689 | 9.44° C | 96% | 1012.9 hPa | 1.27 mm | - | 0 W/m² | - |
| 1777765386 | 9.44° C | 96% | 1012.9 hPa | 0 mm | - | 0 W/m² | - |
| 1777765082 | 10° C | 95% | 1013 hPa | 1.78 mm | - | 1 W/m² | - |
| 1777764778 | 10° C | 95% | 1013 hPa | 1.78 mm | - | 1 W/m² | - |
| 1777764475 | 10° C | 94% | 1012.9 hPa | 0 mm | - | 1 W/m² | - |
| 1777764172 | 10° C | 94% | 1013.1 hPa | 0 mm | - | 2 W/m² | - |
| 1777763868 | 10° C | 92% | 1013.1 hPa | 0 mm | - | 1 W/m² | - |
| 1777763566 | 10° C | 90% | 1012.7 hPa | 0 mm | - | 2 W/m² | - |
| 1777763264 | 10.56° C | 89% | 1013.1 hPa | 0 mm | - | 2 W/m² | - |
| 1777762962 | 10.56° C | 86% | 1012.9 hPa | 0 mm | - | 3 W/m² | - |
| 1777762659 | 10.56° C | 83% | 1013 hPa | 0 mm | - | 4 W/m² | - |
| 1777762356 | 10.56° C | 83% | 1012.9 hPa | 0 mm | - | 6 W/m² | - |
* Rain latest hour (hover to see other rain measurements)
** Current wind speed in m/s (hover to see current wind gust speed)